Change the Weather History Date:

Tuesday, October 28, 2014

  Actual Average Record
Temperature  
Mean Temperature 78 °F -  
Max Temperature 84 °F 85 °F 91 °F (2011)
Min Temperature 73 °F 71 °F 69 °F (1999)
Cooling Degree Days 14    
Growing Degree Days 28 (Base 50)    
Moisture  
Dew Point 75 °F    
Average Humidity 88    
Maximum Humidity 96    
Minimum Humidity 74    
Precipitation  
Precipitation 0.08 in 0.25 in - ()
Sea Level Pressure  
Sea Level Pressure 29.93 in    
Wind  
Wind Speed 5 mph ()    
Max Wind Speed 13 mph    
Max Gust Speed -    
Visibility 6.7 miles    
Events Rain    
Averages and records for this station are not official NWS values.
T = Trace of Precipitation, MM = Missing Value Source: Averaged Metar Reports

Daily Weather History Graph

Daily Weather History Graph

Search for Another Location

Airport or City:

Trip Planner

Search our weather history database for the weather conditions in past years. The results will help you decide how hot, cold, wet, or windy it might be!

Date:

Astronomy

Oct. 28, 2014 Rise Set
Actual Time 5:50 AM CST 5:23 PM CST
Civil Twilight 5:28 AM CST 5:45 PM CST
Nautical Twilight 5:02 AM CST 6:11 PM CST
Astronomical Twilight 4:36 AM CST 6:36 PM CST
Moon 10:04 AM CST (10/28) 9:42 PM CST (10/28)
Length of Visible Light 12h 17m
Length of Day
11h 32m
Waxing Crescent, 25% of the Moon is Illuminated
Oct 28
Waxing Crescent
Oct 30
First Quarter
Nov 6
Full
Nov 14
Last Quarter
Nov 22
New

Hourly Weather History & Observations

Time (CST) Temp. Heat Index Dew Point Humidity Pressure Visibility Wind Dir Wind Speed Gust Speed Precip Events Conditions
12:00 AM 79 °F - 76 °F 86% 29.95 in 12 mi East 4.6 mph - -   Partly Cloudy
3:00 AM 74 °F - 72 °F 92% 29.93 in 7 mi WNW 4.6 mph - - Rain Light Rain
5:00 AM 73.4 °F - 71.6 °F 94% 29.93 in 6.2 mi NW 9.2 mph - N/A   Mostly Cloudy
6:00 AM 73 °F - 72 °F 96% 29.95 in 9 mi NW 5.8 mph - -   Partly Cloudy
6:00 AM 73.4 °F - 71.6 °F 94% 29.94 in 6.2 mi NW 5.8 mph - N/A   Mostly Cloudy
7:00 AM 73.4 °F - 71.6 °F 94% 29.96 in 6.2 mi WNW 5.8 mph - N/A Rain Light Rain
8:00 AM 75.2 °F - 73.4 °F 94% 29.96 in 6.2 mi West 6.9 mph - N/A Rain Light Rain
9:00 AM 75 °F - 73 °F 92% 29.98 in 5 mi West 5.8 mph - - Rain Light Rain
9:00 AM 75.2 °F - 73.4 °F 94% 29.97 in 5.0 mi West 5.8 mph - N/A Rain Light Rain
10:00 AM 78.8 °F - 75.2 °F 89% 29.98 in 5.0 mi WNW 4.6 mph - N/A Rain Light Rain
11:00 AM 82.4 °F 90.9 °F 77.0 °F 84% 29.96 in 6.2 mi WNW 3.5 mph - N/A   Mostly Cloudy
12:00 PM 84 °F - 77 °F 74% 29.93 in 11 mi Calm Calm - -   Partly Cloudy
12:00 PM 84.2 °F 94.1 °F 77.0 °F 79% 29.92 in 6.2 mi Calm Calm - N/A   Mostly Cloudy
1:00 PM 84.2 °F 94.1 °F 77.0 °F 79% 29.91 in 1.9 mi NE 8.1 mph - N/A Rain Rain Showers
1:13 PM 84.2 °F 94.1 °F 77.0 °F 79% 29.90 in 3.1 mi North 4.6 mph - N/A   Mostly Cloudy
2:00 PM 80.6 °F 88.1 °F 78.8 °F 94% 29.89 in 5.6 mi NNE 5.8 mph - N/A   Scattered Clouds
3:00 PM 81 °F - 77 °F 85% 29.88 in 5 mi NNE 8.1 mph - -   Partly Cloudy
3:00 PM 80.6 °F 87.1 °F 77.0 °F 89% 29.88 in 6.2 mi NNE 8.1 mph - N/A   Scattered Clouds
4:00 PM 80.6 °F 87.1 °F 77.0 °F 89% 29.88 in 6.2 mi NNE 12.7 mph - N/A   Scattered Clouds
5:00 PM 78.8 °F - 75.2 °F 89% 29.89 in 6.2 mi NE 8.1 mph - N/A   Scattered Clouds
6:00 PM 79 °F - 74 °F 82% 29.90 in 12 mi NE 6.9 mph - -   Partly Cloudy
6:00 PM 78.8 °F - 75.2 °F 89% 29.90 in 6.2 mi NE 6.9 mph - N/A   Scattered Clouds
9:00 PM 76 °F - 74 °F 90% 29.96 in 12 mi North 5.8 mph - - Rain Light Rain Showers
9:00 PM 75.2 °F - 73.4 °F 94% 29.95 in 6.2 mi North 5.8 mph - N/A   Scattered Clouds